TimeMDT,TemperatureF,Dew PointF,Humidity,Sea Level PressureIn,VisibilityMPH,Wind Direction,Wind SpeedMPH,Gust SpeedMPH,PrecipitationIn,Events,Conditions,WindDirDegrees,DateUTC
12:15 AM,71.6,53.6,53,30.15,10.0,Calm,Calm,-,N/A,,Clear,0,2013-07-02 06:15:00
12:35 AM,71.6,53.6,53,30.16,10.0,Calm,Calm,-,N/A,,Clear,0,2013-07-02 06:35:00
12:55 AM,69.8,53.6,56,30.16,10.0,Calm,Calm,-,N/A,,Clear,0,2013-07-02 06:55:00
1:35 AM,64.4,55.4,73,30.16,10.0,Calm,Calm,-,N/A,,Clear,0,2013-07-02 07:35:00
1:55 AM,66.2,53.6,64,30.16,10.0,West,3.5,-,N/A,,Clear,260,2013-07-02 07:55:00
2:15 AM,66.2,53.6,64,30.17,10.0,Calm,Calm,-,N/A,,Clear,0,2013-07-02 08:15:00
2:35 AM,64.4,53.6,68,30.17,10.0,Calm,Calm,-,N/A,,Clear,0,2013-07-02 08:35:00
2:55 AM,62.6,53.6,72,30.17,10.0,Calm,Calm,-,N/A,,Clear,0,2013-07-02 08:55:00
3:15 AM,60.8,53.6,77,30.17,10.0,Calm,Calm,-,N/A,,Clear,0,2013-07-02 09:15:00
3:35 AM,60.8,51.8,72,30.18,10.0,Calm,Calm,-,N/A,,Clear,0,2013-07-02 09:35:00
3:55 AM,60.8,53.6,77,30.18,10.0,Calm,Calm,-,N/A,,Clear,0,2013-07-02 09:55:00
4:15 AM,60.8,51.8,72,30.19,10.0,Calm,Calm,-,N/A,,Clear,0,2013-07-02 10:15:00
4:35 AM,57.2,53.6,88,30.19,10.0,Calm,Calm,-,N/A,,Clear,0,2013-07-02 10:35:00
4:55 AM,59.0,51.8,77,30.19,10.0,Calm,Calm,-,N/A,,Clear,0,2013-07-02 10:55:00
5:15 AM,59.0,53.6,82,30.20,10.0,Calm,Calm,-,N/A,,Clear,0,2013-07-02 11:15:00
5:35 AM,57.2,51.8,82,30.20,10.0,Calm,Calm,-,N/A,,Clear,0,2013-07-02 11:35:00
5:55 AM,57.2,51.8,82,30.20,10.0,Calm,Calm,-,N/A,,Clear,0,2013-07-02 11:55:00
6:15 AM,57.2,51.8,82,30.21,10.0,Calm,Calm,-,N/A,,Clear,0,2013-07-02 12:15:00
6:35 AM,57.2,53.6,88,30.21,10.0,Calm,Calm,-,N/A,,Clear,0,2013-07-02 12:35:00
7:15 AM,60.8,55.4,82,30.22,10.0,Calm,Calm,-,N/A,,Clear,0,2013-07-02 13:15:00
7:35 AM,62.6,55.4,77,30.22,10.0,Calm,Calm,-,N/A,,Clear,0,2013-07-02 13:35:00
8:15 AM,64.4,51.8,64,30.22,10.0,Calm,Calm,-,N/A,,Clear,0,2013-07-02 14:15:00
8:35 AM,66.2,53.6,64,30.22,10.0,Calm,Calm,-,N/A,,Clear,0,2013-07-02 14:35:00
8:55 AM,68.0,53.6,60,30.21,10.0,Calm,Calm,-,N/A,,Clear,0,2013-07-02 14:55:00
9:15 AM,69.8,53.6,56,30.21,10.0,North,4.6,-,N/A,,Clear,360,2013-07-02 15:15:00
9:35 AM,71.6,53.6,53,30.21,10.0,NW,4.6,-,N/A,,Clear,320,2013-07-02 15:35:00
9:55 AM,71.6,53.6,53,30.20,10.0,Calm,Calm,-,N/A,,Clear,0,2013-07-02 15:55:00
10:15 AM,73.4,53.6,50,30.19,10.0,WNW,3.5,-,N/A,,Clear,300,2013-07-02 16:15:00
10:35 AM,75.2,55.4,50,30.18,10.0,West,3.5,-,N/A,,Clear,270,2013-07-02 16:35:00
11:15 AM,78.8,55.4,44,30.17,10.0,Calm,Calm,-,N/A,,Clear,0,2013-07-02 17:15:00
12:15 PM,82.4,53.6,37,30.14,10.0,West,4.6,-,N/A,,Clear,280,2013-07-02 18:15:00
12:35 PM,82.4,57.2,42,30.13,10.0,SW,3.5,-,N/A,,Clear,220,2013-07-02 18:35:00
12:55 PM,84.2,55.4,37,30.12,10.0,Calm,Calm,-,N/A,,Clear,0,2013-07-02 18:55:00
1:15 PM,84.2,59.0,42,30.11,10.0,WSW,3.5,-,N/A,,Clear,250,2013-07-02 19:15:00
1:35 PM,87.8,55.4,33,30.10,10.0,Calm,Calm,-,N/A,,Clear,0,2013-07-02 19:35:00
1:55 PM,89.6,53.6,29,30.09,10.0,Calm,Calm,-,N/A,,Clear,0,2013-07-02 19:55:00
2:15 PM,91.4,53.6,28,30.08,10.0,WNW,4.6,-,N/A,,Clear,300,2013-07-02 20:15:00
2:35 PM,91.4,57.2,31,30.06,10.0,WSW,3.5,-,N/A,,Clear,250,2013-07-02 20:35:00
2:55 PM,91.4,57.2,31,30.05,10.0,WNW,5.8,-,N/A,,Clear,300,2013-07-02 20:55:00
3:15 PM,93.2,57.2,30,30.04,10.0,West,5.8,-,N/A,,Clear,260,2013-07-02 21:15:00
3:35 PM,91.4,60.8,36,30.03,10.0,WSW,4.6,-,N/A,,Clear,250,2013-07-02 21:35:00
3:55 PM,91.4,60.8,36,30.01,10.0,SW,3.5,-,N/A,,Clear,230,2013-07-02 21:55:00
4:15 PM,95.0,60.8,32,30.01,10.0,Calm,Calm,-,N/A,,Clear,0,2013-07-02 22:15:00
4:35 PM,96.8,51.8,22,30.00,10.0,NNW,5.8,-,N/A,,Clear,340,2013-07-02 22:35:00
4:55 PM,95.0,55.4,26,30.00,10.0,North,3.5,-,N/A,,Clear,360,2013-07-02 22:55:00
5:15 PM,91.4,57.2,31,29.99,10.0,North,5.8,-,N/A,,Clear,360,2013-07-02 23:15:00
5:35 PM,91.4,57.2,31,30.00,10.0,North,6.9,-,N/A,,Clear,360,2013-07-02 23:35:00
5:55 PM,91.4,55.4,29,30.00,10.0,North,10.4,-,N/A,,Clear,10,2013-07-02 23:55:00
6:15 PM,87.8,57.2,35,30.00,10.0,North,8.1,-,N/A,,Clear,10,2013-07-03 00:15:00
6:35 PM,87.8,57.2,35,30.00,10.0,NNW,4.6,-,N/A,,Clear,330,2013-07-03 00:35:00
6:55 PM,84.2,59.0,42,30.01,10.0,North,6.9,-,N/A,,Clear,350,2013-07-03 00:55:00
7:15 PM,82.4,60.8,48,30.01,10.0,WNW,3.5,-,N/A,,Clear,290,2013-07-03 01:15:00
7:35 PM,80.6,59.0,48,30.01,10.0,Calm,Calm,-,N/A,,Clear,0,2013-07-03 01:35:00
7:55 PM,80.6,60.8,51,30.02,10.0,Calm,Calm,-,N/A,,Clear,0,2013-07-03 01:55:00
8:35 PM,78.8,59.0,51,30.03,10.0,Calm,Calm,-,N/A,,Clear,0,2013-07-03 02:35:00
8:55 PM,78.8,59.0,51,30.05,10.0,Calm,Calm,-,N/A,,Clear,0,2013-07-03 02:55:00
9:15 PM,75.2,60.8,61,30.05,10.0,NW,3.5,-,N/A,,Clear,310,2013-07-03 03:15:00
9:35 PM,82.4,53.6,37,30.04,10.0,SSW,31.1,40.3,N/A,,Clear,210,2013-07-03 03:35:00
10:15 PM,80.6,51.8,37,30.07,10.0,SSW,21.9,33.4,N/A,,Partly Cloudy,200,2013-07-03 04:15:00
10:35 PM,80.6,51.8,37,30.08,10.0,SSW,17.3,31.1,N/A,,Scattered Clouds,210,2013-07-03 04:35:00
10:55 PM,78.8,53.6,42,30.09,10.0,SSW,16.1,19.6,N/A,,Partly Cloudy,200,2013-07-03 04:55:00
11:15 PM,78.8,53.6,42,30.10,10.0,SSW,16.1,27.6,N/A,,Clear,210,2013-07-03 05:15:00
11:35 PM,77.0,53.6,44,30.10,10.0,SSW,18.4,24.2,N/A,,Clear,200,2013-07-03 05:35:00
11:55 PM,77.0,53.6,44,30.11,10.0,SSW,17.3,27.6,N/A,,Clear,200,2013-07-03 05:55:00